[[{"header":{"parameterUnit":"m.s-1","parameterCategory":1,"la1":30.2991,"la2":30.254,"lo1":-89.0895,"lo2":-89.0444,"dy":0.0017,"dx":0.0017,"nx":28,"ny":28,"refTime":"2023-07-29T03:00:00:Z","depth":0,"parameterNumber":2,"parameterNumberName":"U-component_of_WINDS"},"data":[0,0,0,0,0,0,0,0,0,0,0,0,0,0,0,0,0,0,0,0,0,0,0,0,0,0,0,0,0,0,0,0,0,0,0,0,0,0,0,0,0,0,0,0,0,0,0,0,0,0,0,0,0,0,0,0,0,0,2.5618,2.5619,0,2.5693,2.5694,2.5694,2.5642,2.5639,2.5637,2.5635,2.5719,2.5723,2.5727,0,0,0,0,0,0,0,0,0,0,0,0,0,2.5436,2.5439,2.5618,2.5619,2.562,2.5693,2.5694,2.5695,2.5642,2.5639,2.5636,2.5634,2.5717,2.5722,2.5728,0,0,0,0,0,0,0,0,0,0,0,0,0,2.5513,2.544,2.5618,2.5602,2.5601,2.5692,2.5694,2.5695,2.5643,2.5639,2.5636,2.5632,2.5715,2.5722,2.5728,2.5841,0,0,2.5749,2.5752,0,0,0,0,0,0,0,0,2.5509,2.552,2.5604,2.5603,2.5603,2.5654,2.566,2.5744,2.5644,2.5627,2.5635,2.5631,2.5701,2.5708,2.573,2.5845,2.5848,2.5749,2.5753,2.5756,2.5758,0,0,0,0,0,0,0,2.5504,2.5517,2.5648,2.5605,2.5604,2.5593,2.5601,2.5676,2.5683,2.5629,2.5625,2.5634,2.57,2.5724,2.5732,2.585,2.5749,2.5755,2.5759,2.5762,2.6059,2.6063,0,0,0,0,0,0,2.5499,2.5512,2.5645,2.565,2.5546,2.56,2.5607,2.5641,2.5682,2.5685,2.5637,2.5631,2.5714,2.5724,2.5735,2.5867,2.5756,2.5763,2.5766,2.6055,2.606,2.6064,0,0,0,0,0,0,2.5495,2.5511,2.5642,2.558,2.5596,2.5606,2.5645,2.5645,2.5669,2.5688,2.569,2.566,2.5712,2.5725,2.5814,2.587,2.5766,2.5772,2.6051,2.6057,2.6062,2.6135,0,0,0,0,0,0,2.549,2.551,2.5551,2.5581,2.5599,2.5719,2.5648,2.5649,2.568,2.5673,2.5711,2.5713,2.571,2.5804,2.5821,2.5877,2.5777,2.6046,2.6053,2.606,2.6128,2.6143,2.6155,0,0,0,0,0,2.5484,2.5571,2.5554,2.557,2.5651,2.5722,2.5733,2.5725,2.5684,2.5727,2.5739,2.5712,2.5861,2.5814,2.5832,2.5891,2.6042,2.6051,2.606,2.6121,2.614,2.6155,0,0,0,0,0,0,2.5549,2.5574,2.5556,2.5655,2.5686,2.5713,2.5766,2.5745,2.579,2.5782,2.5773,2.5782,2.5875,2.5892,2.5839,2.6001,2.5945,2.5958,2.5986,2.6004,2.6017,2.6011,2.5782,0,0,0,0,0,2.5575,2.5629,2.5648,2.5734,2.575,2.5756,2.5787,2.5778,2.5811,2.5825,2.5844,2.5879,2.5934,2.597,2.6021,2.613,2.6138,2.618,2.6194,2.6205,2.6216,2.6274,2.6292,2.6093,2.6093,2.6093,0,0,2.5629,2.565,2.5684,2.5748,2.5771,2.5828,2.5767,2.5831,2.5873,2.5835,2.5919,2.5935,2.5973,2.6072,2.6117,2.6089,2.6273,2.6216,2.6225,2.623,2.6285,2.6304,2.632,2.6099,2.6098,2.6097,0,0,2.5757,2.5778,2.585,2.5874,2.591,2.5913,2.593,2.596,2.5968,2.6051,2.6023,2.6076,2.617,2.6198,2.6225,2.6363,2.6339,2.638,2.6452,2.6509,2.6525,2.6538,2.6586,2.6604,2.6391,2.6392,2.6392,0,2.582,2.5903,2.5891,2.5956,2.5984,2.595,2.6024,2.6049,2.6101,2.6122,2.6091,2.6207,2.6231,2.6335,2.6369,2.6392,2.6412,2.6375,2.6523,2.6537,2.655,2.6595,2.6613,2.6396,2.6396,2.6395,2.6395,0,2.5978,2.6037,2.6092,2.6139,2.6174,2.6244,2.6244,2.6281,2.627,2.6277,2.6362,2.639,2.6445,2.647,2.6461,2.6573,2.6555,2.6523,2.6467,2.6573,2.6616,2.6633,2.6403,2.6401,2.64,2.6399,0,0,2.6149,2.6188,2.6208,2.6229,2.6265,2.6311,2.638,2.6431,2.6463,2.6501,2.6558,2.6638,2.6609,2.6639,2.6633,2.6683,2.6788,2.6645,2.6646,2.6669,2.6913,2.6935,2.6955,2.6774,2.6777,2.678,2.6909,0,2.6277,2.6393,2.6384,2.6495,2.6548,2.6516,2.6576,2.6606,2.6614,2.6662,2.6673,2.6729,2.6686,2.6704,2.6752,2.6765,2.6837,2.6756,2.6827,2.683,2.6816,2.6978,2.7002,2.7122,2.6926,2.6929,2.6931,0,2.6441,2.6481,2.6596,2.6623,2.6645,2.6699,2.6745,2.6791,2.6825,2.6828,2.6861,2.6846,2.6917,2.6859,2.6956,2.6901,2.693,2.6941,2.6946,2.6951,2.6886,2.6986,2.7161,2.7179,2.6957,2.6955,2.6953,0,2.6551,2.6635,2.6713,2.6733,2.6767,2.6805,2.6822,2.6851,2.6883,2.6925,2.6945,2.6996,2.7023,2.7063,2.7063,2.7021,2.7161,2.7104,2.7165,2.7165,2.7195,2.7193,2.7376,2.7217,2.7216,2.7216,2.7216,0,2.6694,2.6766,2.6763,2.6812,2.6891,2.6882,2.6961,2.6974,2.7,2.7052,2.7029,2.7078,2.7075,2.7126,2.7127,2.7206,2.722,2.7224,2.7223,2.7225,2.7224,2.7243,2.7234,2.7221,2.722,2.7219,2.7218,0,2.683,2.6832,2.6915,2.6941,2.6949,2.7006,2.7028,2.7075,2.7081,2.7147,2.7162,2.7172,2.723,2.7234,2.7302,2.7302,2.7398,2.7389,2.7386,2.7383,2.7444,2.7438,2.7644,2.767,2.7496,2.7497,2.7499,0,2.692,2.6974,2.7004,2.7036,2.7054,2.7106,2.7137,2.7131,2.7165,2.7207,2.7249,2.7304,2.7347,2.7442,2.7456,2.7508,2.7499,2.7568,2.7507,2.7506,2.7498,2.7494,2.7499,2.7579,2.7581,2.7583,2.7584,0,2.7079,2.7077,2.7122,2.7168,2.7205,2.7241,2.7275,2.7303,2.73,2.734,2.7397,2.7431,2.7499,2.7554,2.7604,2.7623,2.7604,2.7603,2.762,2.7621,2.7616,2.7618,2.7416,2.7598,2.7597,2.7596,2.7595,2.7594,2.7194,2.7239,2.7267,2.7318,2.7343,2.7374,2.7419,2.743,2.7477,2.753,2.7524,2.7588,2.762,2.7685,2.7708,2.7759,2.7736,2.776,2.7766,2.7772,2.7777,2.761,2.7769,2.7768,2.7768,2.7767,2.7767,0,2.735,2.7366,2.7413,2.7459,2.75,2.7476,2.7512,2.7548,2.7603,2.7634,2.7677,2.7743,2.7796,2.7815,2.7867,2.7904,2.7896,2.7918,2.7914,2.7919,2.7796,2.7775,2.7923,2.7923,2.7923,2.7923,2.7923,2.7923,2.7436,2.7511,2.7512,2.76,2.7616,2.7677,2.7699,2.7729,2.7753,2.7827,2.787,2.7881,2.7907,2.7961,2.8009,2.8013,2.8033,2.8058,2.8058,2.7943,2.7927,2.7912,2.7893,2.8063,2.8063,2.8176,2.8177,2.8178]},{"header":{"parameterUnit":"m.s-1","parameterCategory":1,"la1":30.2991,"la2":30.254,"lo1":-89.0895,"lo2":-89.0444,"dy":0.0017,"dx":0.0017,"nx":28,"ny":28,"refTime":"2023-07-29T03:00:00:Z","depth":0,"parameterNumber":3,"parameterNumberName":"V-component_of_WINDS"},"data":[0,0,0,0,0,0,0,0,0,0,0,0,0,0,0,0,0,0,0,0,0,0,0,0,0,0,0,0,0,0,0,0,0,0,0,0,0,0,0,0,0,0,0,0,0,0,0,0,0,0,0,0,0,0,0,0,0,0,4.4552,4.4552,0,4.4586,4.4587,4.4587,4.4595,4.4595,4.4595,4.4595,4.4626,4.4627,4.4628,0,0,0,0,0,0,0,0,0,0,0,0,0,4.4486,4.4487,4.4552,4.4552,4.4553,4.4586,4.4587,4.4587,4.4595,4.4595,4.4595,4.4594,4.4625,4.4626,4.4628,0,0,0,0,0,0,0,0,0,0,0,0,0,4.4517,4.4488,4.4552,4.4561,4.4562,4.4586,4.4587,4.4587,4.4595,4.4595,4.4595,4.4594,4.4625,4.4626,4.4628,4.4644,0,0,4.4633,4.4633,0,0,0,0,0,0,0,0,4.4515,4.4519,4.4559,4.456,4.4562,4.4586,4.4575,4.4606,4.4595,4.4583,4.4595,4.4594,4.4612,4.4615,4.4622,4.4645,4.4647,4.4633,4.4634,4.4634,4.4635,0,0,0,0,0,0,0,4.4513,4.4518,4.4565,4.456,4.4561,4.4561,4.4565,4.4581,4.4599,4.4584,4.4584,4.4588,4.4613,4.462,4.4623,4.4647,4.4633,4.4634,4.4635,4.4636,4.4682,4.4682,0,0,0,0,0,0,4.451,4.4516,4.4564,4.4566,4.4537,4.4562,4.4567,4.4579,4.4599,4.4601,4.4589,4.4589,4.4618,4.4621,4.4624,4.4642,4.4634,4.4636,4.4637,4.4681,4.4682,4.4682,0,0,0,0,0,0,4.4509,4.4514,4.4563,4.4541,4.4548,4.4564,4.4577,4.4579,4.4587,4.4603,4.4605,4.4594,4.4618,4.4622,4.4638,4.4643,4.4636,4.4638,4.4681,4.4681,4.4682,4.468,0,0,0,0,0,0,4.4507,4.4514,4.4522,4.4542,4.4549,4.4579,4.4577,4.458,4.459,4.459,4.4608,4.461,4.4618,4.4636,4.464,4.4645,4.4639,4.4681,4.4681,4.4682,4.468,4.468,4.4681,0,0,0,0,0,4.4504,4.452,4.4523,4.4528,4.456,4.4579,4.4583,4.4593,4.4591,4.4598,4.4607,4.461,4.4642,4.4638,4.4642,4.4648,4.468,4.4681,4.4682,4.4679,4.468,4.4681,0,0,0,0,0,0,4.45,4.4523,4.4526,4.4549,4.4562,4.4581,4.459,4.4594,4.4607,4.4607,4.4616,4.462,4.4636,4.4643,4.4638,4.4663,4.4661,4.4662,4.4657,4.4658,4.4659,4.4656,4.464,0,0,0,0,0,4.4502,4.4518,4.4536,4.4554,4.456,4.4574,4.4583,4.4589,4.4603,4.4608,4.4619,4.463,4.4643,4.4651,4.4664,4.468,4.4683,4.4686,4.4687,4.4687,4.4688,4.4695,4.4696,4.4684,4.4684,4.4684,0,0,4.4505,4.452,4.4529,4.4553,4.4564,4.4578,4.4579,4.4594,4.4603,4.461,4.4626,4.4634,4.4647,4.4664,4.4671,4.4671,4.4692,4.4688,4.4688,4.4689,4.4696,4.4697,4.4698,4.4685,4.4685,4.4685,0,0,4.4519,4.4532,4.4547,4.4558,4.4575,4.4583,4.4586,4.4604,4.461,4.4626,4.4631,4.4641,4.4663,4.4672,4.4679,4.4692,4.4694,4.4695,4.4698,4.4705,4.4706,4.4706,4.4709,4.471,4.4696,4.4696,4.4696,0,4.4521,4.4544,4.4554,4.4569,4.4578,4.4585,4.4598,4.4608,4.4627,4.4632,4.4631,4.4657,4.4667,4.4684,4.4687,4.4693,4.4695,4.4694,4.4705,4.4706,4.4707,4.471,4.4711,4.4696,4.4696,4.4696,4.4696,0,4.4544,4.4559,4.4569,4.4588,4.4598,4.4612,4.4623,4.4631,4.4635,4.4643,4.4658,4.4669,4.4683,4.4687,4.4692,4.4704,4.4703,4.4703,4.4702,4.4708,4.471,4.4712,4.4696,4.4696,4.4696,4.4696,0,0,4.4557,4.458,4.4583,4.4591,4.4608,4.4619,4.4632,4.4646,4.4652,4.4664,4.4673,4.4691,4.469,4.4699,4.4703,4.4709,4.4716,4.4709,4.4709,4.4709,4.4727,4.4727,4.4728,4.4717,4.4718,4.4718,4.4726,0,4.4572,4.4596,4.4605,4.4624,4.4637,4.4641,4.4652,4.4662,4.4669,4.4679,4.4685,4.4697,4.4697,4.4701,4.4707,4.4714,4.472,4.4714,4.4724,4.4725,4.4721,4.473,4.4729,4.4737,4.4727,4.4727,4.4728,0,4.4592,4.4605,4.4626,4.4639,4.4644,4.4654,4.4666,4.4676,4.4687,4.4691,4.4699,4.4703,4.4713,4.471,4.4724,4.472,4.4724,4.4728,4.4728,4.4729,4.4726,4.473,4.4739,4.474,4.473,4.4729,4.4729,0,4.4597,4.4619,4.4634,4.464,4.4657,4.4663,4.4669,4.468,4.4687,4.4697,4.4701,4.4712,4.4717,4.4724,4.473,4.4728,4.4742,4.4741,4.4744,4.4744,4.4747,4.4747,4.4757,4.4751,4.4751,4.4751,4.4751,0,4.4612,4.4624,4.4636,4.4645,4.4658,4.4666,4.4677,4.4684,4.4693,4.4701,4.4706,4.4713,4.4721,4.4729,4.4733,4.4742,4.4745,4.4747,4.4748,4.4747,4.4746,4.475,4.4749,4.4752,4.4752,4.4752,4.4751,0,4.462,4.4629,4.4645,4.4659,4.4662,4.467,4.4681,4.4688,4.4694,4.4705,4.4708,4.4717,4.4726,4.4732,4.4744,4.4747,4.4757,4.4758,4.4753,4.4754,4.4757,4.4756,4.4769,4.477,4.4764,4.4764,4.4764,0,4.4629,4.4638,4.4652,4.4658,4.4665,4.4676,4.4682,4.469,4.4696,4.4708,4.4713,4.4723,4.4731,4.4745,4.4752,4.476,4.4761,4.4764,4.4762,4.4759,4.4759,4.4759,4.4759,4.4765,4.4765,4.4765,4.4765,0,4.4642,4.4645,4.4656,4.4667,4.4675,4.4684,4.4693,4.4698,4.4706,4.4713,4.4723,4.4729,4.474,4.4749,4.4758,4.4763,4.4764,4.4765,4.4767,4.4765,4.4761,4.4762,4.4753,4.4765,4.4765,4.4765,4.4765,4.4765,4.465,4.4657,4.4668,4.4678,4.4685,4.4693,4.47,4.4707,4.4715,4.4726,4.4729,4.4738,4.4746,4.4758,4.4763,4.4769,4.4769,4.4771,4.4771,4.4771,4.4771,4.4761,4.4771,4.4771,4.4771,4.4771,4.4771,0,4.4662,4.4668,4.4678,4.469,4.4698,4.4699,4.4708,4.4714,4.4723,4.473,4.4738,4.4748,4.4756,4.4762,4.477,4.4774,4.4775,4.4775,4.4775,4.4776,4.4771,4.4769,4.4775,4.4775,4.4775,4.4775,4.4775,4.4774,4.4669,4.4681,4.4685,4.4699,4.4705,4.4716,4.472,4.4726,4.4732,4.4743,4.475,4.4755,4.4761,4.4769,4.4775,4.4777,4.4779,4.478,4.4781,4.4777,4.4776,4.4776,4.4774,4.478,4.478,4.4785,4.4785,4.4785]}]]